Date,TemperatureHighF,TemperatureAvgF,TemperatureLowF,DewpointHighF,DewpointAvgF,DewpointLowF,HumidityHigh,HumidityAvg,HumidityLow,PressureMaxIn,PressureMinIn,WindSpeedMaxMPH,WindSpeedAvgMPH,GustSpeedMaxMPH,PrecipitationSumIn
2013-1-1,34.2,31.7,31.3,30.0,27.7,26.7,86,85,82,30.02,29.98,0,0,0,0.00
2013-1-2,29.1,25.4,22.1,16.9,15.4,14.4,75,66,58,30.19,30.12,7,1,8,0.00
2013-1-3,36.0,26.0,16.9,23.5,17.7,12.0,82,71,59,30.20,30.11,9,1,9,0.00
2013-1-4,34.3,29.3,26.6,23.4,20.5,18.0,74,69,61,30.25,30.16,8,2,10,0.00
2013-1-5,39.0,30.6,24.1,25.8,21.9,18.2,78,70,58,30.36,30.15,7,1,8,8.01
2013-1-6,39.7,35.7,32.9,29.3,26.5,23.4,80,69,63,30.19,30.00,8,1,12,0.09
2013-1-7,34.5,30.6,24.1,28.6,23.4,18.5,81,75,67,30.45,30.20,8,1,8,0.00
2013-1-8,48.4,33.3,21.9,33.8,24.4,17.5,83,71,53,30.36,30.23,6,1,8,0.00
2013-1-9,46.9,38.5,30.0,41.3,32.4,23.3,87,79,66,30.47,30.23,8,0,8,0.02
2013-1-10,45.1,37.0,27.7,35.7,30.2,24.3,88,77,60,30.57,30.24,6,0,7,0.01
2013-1-11,60.6,52.9,43.0,52.2,44.4,30.4,87,74,56,30.24,29.97,7,0,11,0.13
2013-1-12,66.9,59.2,54.3,56.0,52.4,50.5,88,79,64,30.11,29.96,7,0,7,0.00
2013-1-13,68.9,61.8,56.1,54.0,51.4,48.6,86,69,58,30.00,29.89,6,0,8,0.23
2013-1-14,57.6,42.5,34.3,53.4,35.0,25.8,87,75,64,30.33,29.93,6,0,8,0.07
2013-1-15,34.2,32.1,29.8,28.8,25.0,22.0,87,75,70,30.34,30.03,8,3,9,0.17
2013-1-16,36.1,34.5,32.2,32.9,31.1,28.8,88,88,86,30.03,29.86,7,1,8,0.30
2013-1-17,35.1,33.0,29.3,29.9,27.4,24.7,86,80,73,30.17,30.03,7,0,7,0.00
2013-1-18,33.4,27.9,21.0,24.9,15.5,11.2,82,60,49,30.48,30.15,11,3,17,0.00
2013-1-19,54.0,42.1,29.8,26.1,19.8,12.8,51,41,33,30.26,29.89,11,4,12,0.00
2013-1-20,43.9,38.5,27.5,29.2,18.9,10.5,58,46,29,30.11,29.87,12,5,12,0.00
2013-1-21,34.7,25.7,13.8,16.9,12.2,-1.5,71,57,45,30.08,29.88,9,3,15,0.00
2013-1-22,17.2,11.8,7.3,0.8,-2.2,-3.8,62,53,44,30.24,30.03,14,3,14,0.00
2013-1-23,20.8,13.8,5.9,9.7,1.2,-3.9,72,57,45,30.28,30.02,8,1,8,0.00
2013-1-24,22.1,16.9,11.8,10.2,6.6,2.9,77,65,46,30.48,30.00,9,1,11,0.00
2013-1-25,22.8,17.6,11.5,15.9,8.6,1.6,79,68,54,30.46,29.98,7,1,8,0.00
2013-1-26,30.4,25.0,21.0,22.8,17.9,12.4,81,74,63,30.39,30.07,8,1,10,0.00
2013-1-27,34.7,27.1,18.7,20.3,15.9,11.4,75,63,52,30.48,30.26,7,0,7,0.09
2013-1-28,51.1,42.5,30.6,47.2,37.7,19.8,89,83,64,30.27,30.05,12,1,14,0.53
2013-1-29,66.2,56.9,50.2,55.0,49.6,47.0,89,78,61,30.08,29.83,8,1,8,0.03
2013-1-30,71.4,58.4,47.3,54.0,49.9,43.0,87,75,54,29.83,29.31,19,2,19,2.09
2013-1-31,46.9,29.5,23.5,42.7,20.6,11.8,85,69,55,29.87,29.29,17,4,20,0.06